PDT,Max TemperatureF,Mean TemperatureF,Min TemperatureF,Max Dew PointF,MeanDew PointF,Min DewpointF,Max Humidity, Mean Humidity, Min Humidity, Max Sea Level PressureIn, Mean Sea Level PressureIn, Min Sea Level PressureIn, Max VisibilityMiles, Mean VisibilityMiles, Min VisibilityMiles, Max Wind SpeedMPH, Mean Wind SpeedMPH, Max Gust SpeedMPH,PrecipitationIn, CloudCover, Events, WindDirDegrees
2013-9-1,89,70,50,48,42,37,87,45,16,29.98,29.93,29.86,10,10,10,7,1,,0.00,0,,80
2013-9-2,82,66,50,52,48,43,94,55,28,30.00,29.95,29.88,10,10,10,8,2,,0.00,3,,233
2013-9-3,84,70,55,50,48,45,77,53,25,30.03,29.99,29.93,10,10,10,9,2,16,0.00,3,,236
2013-9-4,84,66,48,50,45,36,87,56,20,30.08,30.03,29.96,10,10,10,13,2,16,0.00,0,,212
2013-9-5,75,62,48,48,44,37,93,56,27,30.10,30.04,30.01,10,10,10,13,4,22,0.00,1,,228
2013-9-6,86,65,44,46,43,41,87,55,20,30.16,30.07,29.97,10,10,5,7,1,,0.00,1,,47
2013-9-7,91,68,46,46,41,27,87,47,10,30.03,29.98,29.89,10,10,10,6,1,,0.00,1,,284
2013-9-8,95,72,48,46,42,36,76,43,14,30.03,29.95,29.85,10,10,10,8,2,,0.00,0,,198
2013-9-9,95,72,50,45,40,34,71,39,12,29.98,29.90,29.80,10,10,10,8,2,,0.00,0,,232
2013-9-10,98,74,50,41,36,27,62,34,9,29.92,29.86,29.79,10,10,10,10,2,18,0.00,1,,9
2013-9-11,95,74,53,54,47,41,72,43,17,30.02,29.96,29.91,10,10,10,8,1,,0.00,0,,189
2013-9-12,93,73,53,52,46,41,82,47,16,30.04,29.97,29.89,10,10,10,14,2,21,0.00,0,,213
2013-9-13,95,74,53,46,42,34,72,39,12,29.98,29.90,29.80,10,10,10,14,3,20,0.00,0,,235
2013-9-14,95,73,51,48,45,41,76,43,15,29.87,29.81,29.73,10,10,10,8,2,,0.00,0,,141
2013-9-15,84,68,51,50,46,36,82,49,18,29.92,29.82,29.79,10,10,10,15,3,21,0.00,1,,225
2013-9-16,82,65,48,50,45,39,93,54,21,29.98,29.90,29.81,10,10,10,10,3,20,0.00,2,,224
2013-9-17,68,57,46,46,44,39,82,56,40,30.02,29.89,29.84,10,10,10,16,8,32,0.00,2,,230
2013-9-18,78,58,37,43,36,30,93,55,18,30.09,30.00,29.92,10,10,10,7,1,,0.00,1,,249
2013-9-19,87,63,39,39,33,19,87,46,9,29.99,29.91,29.80,10,10,10,6,1,,0.04,2,,81
2013-9-20,77,59,41,57,42,25,100,64,14,29.84,29.79,29.74,10,9,3,17,2,26,0.19,3,,235
2013-9-21,59,52,44,54,48,41,100,87,55,29.90,29.80,29.74,10,8,1,12,2,17,0.30,5,,213
2013-9-22,60,52,44,50,45,41,100,75,48,30.04,29.98,29.91,10,10,2,13,2,21,0.00,8,,232
2013-9-23,73,63,53,54,49,45,94,69,36,30.07,30.02,29.97,10,9,2,10,2,17,0.02,4,,237
2013-9-24,66,58,50,46,42,39,76,58,37,30.00,29.95,29.90,10,10,10,16,8,26,0.00,2,,214
2013-9-25,59,48,37,37,36,32,93,61,36,29.97,29.91,29.89,10,10,8,16,7,25,0.00,2,,226
2013-9-26,64,48,32,37,32,28,100,65,26,30.13,30.02,29.97,10,10,10,10,1,,0.00,2,,72
2013-9-27,71,52,32,39,33,28,100,61,20,30.21,30.14,30.07,10,10,10,8,1,,0.00,0,,244
2013-9-28,71,56,41,46,40,36,87,57,27,30.11,30.05,29.96,10,10,10,13,3,22,0.00,4,,207
2013-9-29,60,58,55,55,53,46,100,89,63,29.99,29.96,29.92,10,7,2,14,5,21,0.46,8,,211
2013-9-30,64,54,44,55,49,41,100,78,49,30.03,29.98,29.90,10,9,2,12,4,18,0.12,4,,211